STARLINK-1938 (47551 NORAD) Tracking and Keplerian Element Data

This shows tracking and keplerian element data for the satellite.

Feedback or suggestion? Click here.




ElementValue
Catalog47551
NameSTARLINK-1938
Epoch Orbit1175
Epoch Day106.25002315
Epoch Year2021
RAAN136.38
Inclination53.0517
Eccentricity0.0004268
Argument of Perigee8.0712
Mean Anonmoly144.3636
Mean Motion15.6277283
Decay Rate-4.827E-05
L11 47551U 21009D 21106.25002315 -.00004827 00000-0 -46816-4 0 9994
L22 47551 53.0517 136.3800 0004268 8.0712 144.3636 15.62772830 11756

Live tracking and technical data element details for STARLINK-1938 (NORAD 47551). STARLINK-1938 can be tracked NOW for your location showing map with azimuth and elevation plus other details from your city location.

Track the satellite on the map from your city or location and see movement details for azimuth, elevation, latitude, longitude, range, height, and movement on the map or in text.







IsCatalogInMostPopularTable: catalog: 47551, numindb: 18
Update: records affected: 1



GetName: 47551 STARLINK-1938

Hit Count: updated at: Fri, 16 Apr 2021 10:49:57 GMT